BAW370 LIRF-LIMJ

Flight info

Callsign BAW370
Flight time 0h 43m
Altitude 28000
Route NENIG8K GILIO DCT ELB DCT BETEN/N0377F180 M729 IDONA IDONA1J
Aircraft B788/H-SADE1E2E3FGHIJ3J4J5J6LM1M2OP2RWXYZ/LB1D1

Departure

Time 2026-05-05 05:06
Airport Rome–Fiumicino Leonardo da Vinci International Airport (LIRF)

Arrival

Time 2026-05-05 05:49
Airport Genoa Cristoforo Colombo Airport (LIMJ)
Time Latitude Longitude Altitude Speed Heading
2026-05-05 04:48 41.79731 12.24849 22 ft 0 kts 249°
2026-05-05 04:58 41.79734 12.24860 22 ft 3 kts 249°
2026-05-05 04:58 41.79741 12.24882 28 ft 3 kts 249°
2026-05-05 04:58 41.79747 12.24904 27 ft 2 kts 249°
2026-05-05 04:59 41.79753 12.24926 28 ft 2 kts 249°
2026-05-05 04:59 41.79758 12.24941 28 ft 0 kts 249°
2026-05-05 04:59 41.79756 12.24928 28 ft 3 kts 272°
2026-05-05 05:00 41.79781 12.24892 24 ft 9 kts 342°
2026-05-05 05:00 41.79864 12.24867 25 ft 14 kts 346°
2026-05-05 05:00 41.79962 12.24824 25 ft 16 kts 340°
2026-05-05 05:00 41.80063 12.24787 26 ft 11 kts
2026-05-05 05:01 41.80093 12.24825 23 ft 8 kts 72°
2026-05-05 05:01 41.80108 12.24934 25 ft 13 kts 89°
2026-05-05 05:01 41.80097 12.25061 27 ft 15 kts 98°
2026-05-05 05:01 41.80099 12.25208 25 ft 18 kts 77°
2026-05-05 05:02 41.80143 12.25377 31 ft 21 kts 68°
2026-05-05 05:02 41.80198 12.25571 26 ft 23 kts 70°
2026-05-05 05:02 41.80251 12.25782 25 ft 24 kts 72°
2026-05-05 05:02 41.80307 12.25993 22 ft 25 kts 69°
2026-05-05 05:03 41.80414 12.26155 21 ft 23 kts 22°
2026-05-05 05:03 41.80535 12.26274 22 ft 22 kts 64°
2026-05-05 05:03 41.80588 12.26458 25 ft 21 kts 70°
2026-05-05 05:03 41.80650 12.26697 22 ft 31 kts 70°
2026-05-05 05:04 41.80724 12.26967 17 ft 31 kts 69°
2026-05-05 05:04 41.80802 12.27183 18 ft 24 kts 40°
2026-05-05 05:04 41.80958 12.27217 17 ft 23 kts 338°
2026-05-05 05:04 41.80994 12.27053 17 ft 12 kts 245°
2026-05-05 05:05 41.80989 12.27038 18 ft 2 kts 245°
2026-05-05 05:05 41.80932 12.26843 20 ft 53 kts 250°
2026-05-05 05:05 41.80726 12.26078 28 ft 120 kts 250°
2026-05-05 05:05 41.80378 12.24785 174 ft 165 kts 255°
2026-05-05 05:06 41.80001 12.23341 998 ft 163 kts 248°
2026-05-05 05:06 41.79582 12.21937 1871 ft 170 kts 246°
2026-05-05 05:06 41.79257 12.20258 2292 ft 205 kts 263°
2026-05-05 05:06 41.79241 12.18213 2759 ft 237 kts 268°
2026-05-05 05:07 41.79207 12.15876 3364 ft 261 kts 266°
2026-05-05 05:07 41.79138 12.13429 4541 ft 262 kts 265°
2026-05-05 05:07 41.79066 12.10985 5598 ft 266 kts 265°
2026-05-05 05:07 41.79079 12.08465 6648 ft 271 kts 270°
2026-05-05 05:08 41.79073 12.05938 7655 ft 274 kts 266°
2026-05-05 05:08 41.79021 12.03389 8668 ft 277 kts 267°
2026-05-05 05:08 41.79010 12.00795 9688 ft 280 kts 269°
2026-05-05 05:08 41.79017 11.98132 10449 ft 292 kts 269°
2026-05-05 05:09 41.79013 11.95370 10677 ft 320 kts 269°
2026-05-05 05:09 41.79000 11.92241 10966 ft 344 kts 269°
2026-05-05 05:09 41.78990 11.89070 11880 ft 346 kts 269°
2026-05-05 05:09 41.79017 11.85812 12717 ft 351 kts 274°
2026-05-05 05:10 41.79685 11.82661 13557 ft 358 kts 295°
2026-05-05 05:10 41.80928 11.79708 14301 ft 364 kts 299°
2026-05-05 05:10 41.82253 11.76776 15037 ft 369 kts 300°
2026-05-05 05:10 41.83587 11.73827 15746 ft 374 kts 299°
2026-05-05 05:11 41.84927 11.70784 16449 ft 379 kts 299°
2026-05-05 05:11 41.86264 11.67731 17140 ft 383 kts 299°
2026-05-05 05:11 41.87631 11.64642 17832 ft 388 kts 299°
2026-05-05 05:11 41.89020 11.61508 18479 ft 393 kts 299°
2026-05-05 05:12 41.90558 11.58488 19117 ft 396 kts 310°
2026-05-05 05:12 41.92482 11.55760 19762 ft 399 kts 312°
2026-05-05 05:12 41.94399 11.53062 20410 ft 401 kts 312°
2026-05-05 05:12 41.96306 11.50368 21008 ft 403 kts 311°
2026-05-05 05:13 41.98246 11.47612 21603 ft 405 kts 311°
2026-05-05 05:13 42.00197 11.44841 22195 ft 407 kts 311°
2026-05-05 05:13 42.02136 11.42091 22988 ft 403 kts 311°
2026-05-05 05:13 42.04058 11.39362 23719 ft 400 kts 311°
2026-05-05 05:14 42.05959 11.36656 24294 ft 398 kts 311°
2026-05-05 05:14 42.07867 11.33937 24864 ft 397 kts 310°
2026-05-05 05:14 42.09742 11.31264 25429 ft 395 kts 310°
2026-05-05 05:14 42.11632 11.28570 26001 ft 394 kts 310°
2026-05-05 05:15 42.13505 11.25895 26588 ft 392 kts 310°
2026-05-05 05:15 42.15386 11.23206 27189 ft 391 kts 310°
2026-05-05 05:15 42.17241 11.20553 27807 ft 390 kts 310°
2026-05-05 05:15 42.19105 11.17880 28014 ft 398 kts 310°
2026-05-05 05:16 42.21030 11.15119 28006 ft 398 kts 310°
2026-05-05 05:16 42.24771 11.09758 28008 ft 391 kts 310°
2026-05-05 05:17 42.28484 11.04413 28005 ft 391 kts 310°
2026-05-05 05:17 42.30364 11.01708 27999 ft 391 kts 310°
2026-05-05 05:17 42.32219 10.99035 28001 ft 391 kts 310°
2026-05-05 05:17 42.34079 10.96351 28000 ft 392 kts 310°
2026-05-05 05:18 42.35949 10.93650 28000 ft 392 kts 310°
2026-05-05 05:18 42.37803 10.90972 27997 ft 391 kts 310°
2026-05-05 05:18 42.39659 10.88289 27997 ft 391 kts 310°
2026-05-05 05:18 42.41528 10.85587 27994 ft 391 kts 310°
2026-05-05 05:19 42.43377 10.82910 27992 ft 391 kts 309°
2026-05-05 05:19 42.45241 10.80209 27990 ft 391 kts 309°
2026-05-05 05:19 42.47089 10.77528 27991 ft 391 kts 309°
2026-05-05 05:19 42.48955 10.74818 27990 ft 392 kts 309°
2026-05-05 05:20 42.50809 10.72124 27993 ft 392 kts 309°
2026-05-05 05:20 42.52670 10.69418 27990 ft 393 kts 309°
2026-05-05 05:20 42.54518 10.66726 27992 ft 393 kts 309°
2026-05-05 05:20 42.56398 10.63986 27992 ft 393 kts 309°
2026-05-05 05:21 42.58262 10.61267 27988 ft 393 kts 309°
2026-05-05 05:21 42.60095 10.58591 27990 ft 393 kts 309°
2026-05-05 05:21 42.61971 10.55849 27991 ft 393 kts 309°
2026-05-05 05:21 42.63821 10.53142 27985 ft 393 kts 309°
2026-05-05 05:22 42.65683 10.50415 27983 ft 394 kts 309°
2026-05-05 05:22 42.67555 10.47672 27981 ft 394 kts 309°
2026-05-05 05:22 42.69424 10.44930 27981 ft 394 kts 309°
2026-05-05 05:22 42.71277 10.42210 27981 ft 394 kts 309°
2026-05-05 05:23 42.73249 10.39635 27994 ft 398 kts 320°
2026-05-05 05:23 42.75632 10.37637 27977 ft 401 kts 327°
2026-05-05 05:23 42.78064 10.35805 27976 ft 401 kts 328°
2026-05-05 05:23 42.80509 10.33981 27971 ft 401 kts 328°
2026-05-05 05:24 42.82940 10.32153 27966 ft 399 kts 327°
2026-05-05 05:24 42.85369 10.30313 27969 ft 399 kts 327°
2026-05-05 05:24 42.87805 10.28470 27969 ft 399 kts 327°
2026-05-05 05:24 42.90231 10.26641 27968 ft 399 kts 327°
2026-05-05 05:25 42.92637 10.24822 27839 ft 400 kts 327°
2026-05-05 05:25 42.95096 10.22960 27716 ft 400 kts 327°
2026-05-05 05:25 42.97515 10.21126 27658 ft 400 kts 327°
2026-05-05 05:25 42.99946 10.19283 27579 ft 401 kts 328°
2026-05-05 05:26 43.02409 10.17413 27531 ft 401 kts 328°
2026-05-05 05:26 43.04840 10.15566 27429 ft 402 kts 327°
2026-05-05 05:26 43.07285 10.13707 27381 ft 401 kts 327°
2026-05-05 05:26 43.09730 10.11846 27316 ft 401 kts 328°
2026-05-05 05:27 43.12152 10.10000 27203 ft 402 kts 328°
2026-05-05 05:27 43.14612 10.08125 27069 ft 403 kts 328°
2026-05-05 05:27 43.19505 10.04388 26789 ft 404 kts 328°
2026-05-05 05:28 43.21985 10.02491 26656 ft 404 kts 328°
2026-05-05 05:28 43.24423 10.00625 26517 ft 405 kts 328°
2026-05-05 05:28 43.26874 9.98748 26382 ft 405 kts 328°
2026-05-05 05:28 43.29364 9.96838 26240 ft 406 kts 328°
2026-05-05 05:29 43.31813 9.94957 26113 ft 406 kts 328°
2026-05-05 05:29 43.34279 9.93063 25977 ft 407 kts 328°
2026-05-05 05:29 43.36741 9.91170 25837 ft 407 kts 328°
2026-05-05 05:29 43.39228 9.89256 25710 ft 408 kts 328°
2026-05-05 05:30 43.40858 9.88000 25609 ft 408 kts 328°
2026-05-05 05:30 43.44170 9.85444 25422 ft 408 kts 328°
2026-05-05 05:30 43.45819 9.84172 25324 ft 409 kts 328°
2026-05-05 05:30 43.48295 9.82261 25044 ft 410 kts 328°
2026-05-05 05:31 43.50807 9.80317 24344 ft 416 kts 328°
2026-05-05 05:31 43.53357 9.78343 23610 ft 422 kts 328°
2026-05-05 05:31 43.55926 9.76354 22794 ft 426 kts 328°
2026-05-05 05:31 43.58523 9.74340 22011 ft 427 kts 328°
2026-05-05 05:32 43.61104 9.72336 21242 ft 427 kts 328°
2026-05-05 05:32 43.63666 9.70344 20479 ft 427 kts 328°
2026-05-05 05:32 43.66269 9.68321 19706 ft 427 kts 328°
2026-05-05 05:32 43.68872 9.66295 18936 ft 426 kts 328°
2026-05-05 05:33 43.71432 9.64299 18159 ft 426 kts 328°
2026-05-05 05:33 43.74030 9.62271 17378 ft 423 kts 328°
2026-05-05 05:33 43.76563 9.60294 16611 ft 420 kts 328°
2026-05-05 05:33 43.79112 9.58303 15848 ft 418 kts 328°
2026-05-05 05:34 43.81619 9.56341 15103 ft 415 kts 328°
2026-05-05 05:34 43.84122 9.54379 14353 ft 413 kts 328°
2026-05-05 05:34 43.86639 9.52407 13587 ft 411 kts 328°
2026-05-05 05:34 43.89126 9.50459 12818 ft 407 kts 328°
2026-05-05 05:35 43.91571 9.48539 12080 ft 403 kts 328°
2026-05-05 05:35 43.93984 9.46642 11351 ft 399 kts 327°
2026-05-05 05:35 43.96404 9.44738 10650 ft 394 kts 327°
2026-05-05 05:35 43.98646 9.42790 10453 ft 371 kts 317°
2026-05-05 05:36 44.00466 9.40366 10297 ft 351 kts 312°
2026-05-05 05:36 44.02163 9.38024 9900 ft 342 kts 311°
2026-05-05 05:36 44.03793 9.35763 9437 ft 320 kts 311°
2026-05-05 05:36 44.05314 9.33649 9008 ft 296 kts 311°
2026-05-05 05:37 44.06721 9.31694 8622 ft 276 kts 311°
2026-05-05 05:37 44.08048 9.29849 8280 ft 261 kts 311°
2026-05-05 05:37 44.09294 9.28113 7929 ft 251 kts 312°
2026-05-05 05:37 44.10535 9.26385 7592 ft 251 kts 311°
2026-05-05 05:38 44.11759 9.24679 7208 ft 249 kts 311°
2026-05-05 05:38 44.12964 9.23002 6992 ft 242 kts 311°
2026-05-05 05:38 44.14145 9.21361 6716 ft 239 kts 311°
2026-05-05 05:38 44.15328 9.19711 6413 ft 241 kts 311°
2026-05-05 05:39 44.16663 9.18262 6068 ft 249 kts 335°
2026-05-05 05:39 44.18362 9.17909 5826 ft 253 kts
2026-05-05 05:39 44.20027 9.18622 5613 ft 250 kts 22°
2026-05-05 05:39 44.21644 9.19526 5390 ft 244 kts 23°
2026-05-05 05:40 44.23190 9.20398 5187 ft 238 kts 22°
2026-05-05 05:40 44.24706 9.21226 4997 ft 233 kts 23°
2026-05-05 05:40 44.26205 9.22044 4811 ft 226 kts 23°
2026-05-05 05:40 44.27637 9.22830 4611 ft 218 kts 24°
2026-05-05 05:41 44.29025 9.23593 4413 ft 208 kts 24°
2026-05-05 05:41 44.30314 9.24269 4215 ft 190 kts 20°
2026-05-05 05:41 44.31564 9.24315 3942 ft 179 kts 342°
2026-05-05 05:41 44.32396 9.23226 3908 ft 158 kts 297°
2026-05-05 05:42 44.32943 9.21928 4005 ft 156 kts 296°
2026-05-05 05:42 44.33217 9.20488 4014 ft 153 kts 280°
2026-05-05 05:42 44.33558 9.19073 4018 ft 152 kts 284°
2026-05-05 05:42 44.33867 9.17656 4019 ft 153 kts 283°
2026-05-05 05:43 44.34180 9.16237 4024 ft 155 kts 284°
2026-05-05 05:43 44.34508 9.14764 4021 ft 157 kts 283°
2026-05-05 05:43 44.34822 9.13341 4020 ft 153 kts 283°
2026-05-05 05:43 44.35140 9.11891 3978 ft 158 kts 283°
2026-05-05 05:44 44.35464 9.10412 3784 ft 157 kts 284°
2026-05-05 05:44 44.35781 9.08970 3569 ft 155 kts 284°
2026-05-05 05:44 44.36106 9.07529 3360 ft 155 kts 284°
2026-05-05 05:44 44.36422 9.06085 3135 ft 156 kts 285°
2026-05-05 05:45 44.36733 9.04666 2914 ft 151 kts 285°
2026-05-05 05:45 44.37047 9.03238 2714 ft 151 kts 286°
2026-05-05 05:45 44.37347 9.01865 2482 ft 149 kts 288°
2026-05-05 05:45 44.37666 9.00468 2271 ft 151 kts 287°
2026-05-05 05:46 44.37966 8.99092 2060 ft 146 kts 288°
2026-05-05 05:46 44.38269 8.97717 1856 ft 149 kts 288°
2026-05-05 05:46 44.38560 8.96377 1656 ft 142 kts 288°
2026-05-05 05:46 44.38856 8.95032 1435 ft 143 kts 289°
2026-05-05 05:47 44.39145 8.93722 1254 ft 142 kts 289°
2026-05-05 05:47 44.39433 8.92409 1057 ft 141 kts 288°
2026-05-05 05:47 44.39720 8.91108 863 ft 140 kts 288°
2026-05-05 05:47 44.40007 8.89812 668 ft 140 kts 290°
2026-05-05 05:48 44.40290 8.88509 476 ft 140 kts 290°
2026-05-05 05:48 44.40583 8.87173 245 ft 147 kts 288°
2026-05-05 05:48 44.40864 8.85851 110 ft 141 kts 289°
2026-05-05 05:48 44.41125 8.84541 27 ft 119 kts 281°
2026-05-05 05:49 44.41326 8.83486 30 ft 99 kts 290°
2026-05-05 05:49 44.41448 8.82952 28 ft 40 kts 284°
2026-05-05 05:49 44.41510 8.82600 25 ft 35 kts 285°
2026-05-05 05:49 44.41607 8.82488 24 ft 12 kts 15°
2026-05-05 05:50 44.41654 8.82554 26 ft 11 kts 70°
2026-05-05 05:50 44.41645 8.82667 28 ft 14 kts 108°
2026-05-05 05:50 44.41618 8.82801 24 ft 14 kts 101°
2026-05-05 05:50 44.41595 8.82929 27 ft 13 kts 104°
2026-05-05 05:51 44.41563 8.83096 28 ft 23 kts 105°
2026-05-05 05:51 44.41520 8.83337 25 ft 28 kts 103°
2026-05-05 05:51 44.41464 8.83602 28 ft 26 kts 106°
2026-05-05 05:51 44.41419 8.83829 25 ft 22 kts 104°
2026-05-05 05:52 44.41383 8.84022 30 ft 18 kts 105°
2026-05-05 05:52 44.41348 8.84191 28 ft 20 kts 107°
2026-05-05 05:52 44.41318 8.84372 26 ft 17 kts 83°
2026-05-05 05:52 44.41366 8.84491 28 ft 13 kts 54°
2026-05-05 05:53 44.41412 8.84581 30 ft 10 kts 53°
2026-05-05 05:53 44.41456 8.84657 31 ft 11 kts 50°
2026-05-05 05:53 44.41512 8.84752 32 ft 13 kts 51°
2026-05-05 05:53 44.41554 8.84846 27 ft 9 kts 86°
2026-05-05 05:54 44.41540 8.84905 29 ft 0 kts 108°